Regional Weather Roundup
Issued by NWS

Home | Current Version | Previous Version | Graphics & Text | Print | Product List | Glossary On
Versions: 1 2 3 4 5 6 7 8 9 10 11 12 13 14 15 16 17 18 19 20 21 22 23 24 25 26 27 28 29 30 31 32 33 34 35 36 37 38 39 40 41 42 43 44 45 46 47 48 49 50
000
ASUS43 KOAX 262102
RWRNE

WEATHER ROUNDUP FOR NEBRASKA
NATIONAL WEATHER SERVICE OMAHA NE
300 PM CST MON JAN 26 2015

NOTES: SATELLITE DATA IS BEING USED TO AUGMENT CLOUD COVER ABOVE
       12000 FEET.
       "FAIR" INDICATES FEW OR NO CLOUDS BELOW 12,000 FEET WITH NO
       SIGNIFICANT WEATHER AND/OR OBSTRUCTIONS TO VISIBILITY.

  * THESE STATIONS DO NOT REPORT WEATHER SUCH AS RAIN...SNOW OR FOG.

NEZ001>004-019>022-054>056-262200-
NEBRASKA PANHANDLE

CITY           SKY/WX    TMP DP  RH WIND       PRES   REMARKS
SCOTTSBLUFF    SUNNY     65  38  36 W8        30.12F
ALLIANCE       SUNNY     63  37  38 NW10      30.09F
CHADRON          N/A     64  34  32 NW15      30.06F
SIDNEY         SUNNY     67  30  25 NW15      30.14F
$$

NEZ057>060-069>072-079>082-262200-
SOUTHWEST NEBRASKA

CITY           SKY/WX    TMP DP  RH WIND       PRES   REMARKS
NORTH PLATTE   SUNNY     68  28  22 NW22G33   30.05S
IMPERIAL       SUNNY     68  28  22 N21G29    30.09F
MCCOOK         SUNNY     72  28  19 NW20G28   30.05S
$$

NEZ005>010-023>029-035>040-094-262200-
NORTH CENTRAL NEBRASKA

CITY           SKY/WX    TMP DP  RH WIND       PRES   REMARKS
VALENTINE      SUNNY     62  33  33 NW15      30.01S
BROKEN BOW     SUNNY     65  34  31 NW17G31   30.00S
ORD            SUNNY     62  33  33 NW18G25   29.98S
$$

NEZ041-046>049-061>064-073>077-083>087-262200-
SOUTH CENTRAL NEBRASKA

CITY           SKY/WX    TMP DP  RH WIND       PRES   REMARKS
GRAND ISLAND   SUNNY     62  34  35 NW17      29.99S
AURORA         SUNNY     64  32  30 NW12G21   29.97S
HASTINGS       SUNNY     64  31  28 NW22      30.00S
KEARNEY *      SUNNY     66  32  28 NW18G24   30.00S
$$

NEZ011>018-030>034-042>045-262200-
NORTHEAST NEBRASKA

CITY           SKY/WX    TMP DP  RH WIND       PRES   REMARKS
NORFOLK        SUNNY     58  32  37 NW16G26   29.95R
ALBION         SUNNY     60  31  33 NW14      29.98R
BLAIR          SUNNY     57  35  42 NW15G23   29.92R
COLUMBUS *     SUNNY     59  32  36 NW17      29.98R
TEKAMAH        SUNNY     57  38  48 NW21G28   29.93R
$$

NEZ050>053-065>068-078-088>093-262200-
SOUTHEAST NEBRASKA

CITY           SKY/WX    TMP DP  RH WIND       PRES   REMARKS
LINCOLN        SUNNY     62  32  32 NW16      29.96S
OMAHA EPPLEY   MOSUNNY   58  35  42 N18       29.92R
FALLS CITY     SUNNY     62  32  32 N16G25    29.91S
$$

NEZ044-045-051>053-067-262200-
OMAHA AREA

CITY           SKY/WX    TMP DP  RH WIND       PRES   REMARKS
OMAHA EPPLEY   MOSUNNY   58  35  42 N18       29.92R
BLAIR          SUNNY     57  35  42 NW15G23   29.92R
OFFUTT AFB     SUNNY     58  35  40 NW18G25   29.92R
$$


USA.gov is the U.S. government's official web portal to all federal, state and local government web resources and services.